• In Belarus
  • List of Countries
  • For 7 days
  • Water Temperature
  • Weather Map
  • Weather Widgets
  • user-avatar
    Login

    Hourly Weather Abomey

    Today, 20 August, Tuesday

    Time Temperature Precipitation Wind Pressure Humidity
    00:00 +24°C° 0 mm 2 mps 739 mmHg 94%
    01:00 +24°C° 0 mm 2 mps 739 mmHg 95%
    02:00 +24°C° 0 mm 2 mps 739 mmHg 95%
    03:00 +24°C° 0 mm 2 mps 738 mmHg 95%
    04:00 +24°C° 0 mm 2 mps 739 mmHg 95%
    05:00 +24°C° 0 mm 2 mps 739 mmHg 95%
    06:00 +24°C° 0 mm 2 mps 740 mmHg 95%
    07:00 +25°C° 0 mm 3 mps 740 mmHg 91%
    08:00 +26°C° 0 mm 3 mps 741 mmHg 86%
    09:00 +27°C° 0 mm 3 mps 741 mmHg 82%
    10:00 +28°C° 0.3 mm 3 mps 741 mmHg 78%
    11:00 +29°C° 0.3 mm 3 mps 740 mmHg 74%
    12:00 +30°C° 0 mm 3 mps 740 mmHg 71%
    13:00 +30°C° 0.8 mm 3 mps 739 mmHg 72%
    14:00 +30°C° 0.8 mm 3 mps 739 mmHg 74%
    15:00 +29°C° 0.8 mm 3 mps 738 mmHg 76%
    16:00 +28°C° 0.9 mm 3 mps 738 mmHg 80%
    17:00 +27°C° 0.9 mm 3 mps 739 mmHg 84%
    18:00 +26°C° 0.9 mm 3 mps 739 mmHg 88%
    19:00 +26°C° 0.1 mm 3 mps 740 mmHg 90%
    20:00 +25°C° 0.1 mm 3 mps 740 mmHg 91%
    21:00 +25°C° 0.1 mm 3 mps 741 mmHg 92%
    22:00 +24°C° 0 mm 3 mps 741 mmHg 93%
    23:00 +24°C° 0 mm 2 mps 741 mmHg 94%

    Tomorrow, 21 August, Wednesday

    Time Temperature Precipitation Wind Pressure Humidity
    00:00 +24°C° 0 mm 2 mps 741 mmHg 95%
    01:00 +24°C° 0 mm 2 mps 740 mmHg 95%
    02:00 +24°C° 0 mm 2 mps 740 mmHg 96%
    03:00 +23°C° 0 mm 2 mps 740 mmHg 96%
    04:00 +23°C° 0 mm 2 mps 740 mmHg 96%
    05:00 +23°C° 0 mm 2 mps 740 mmHg 96%
    06:00 +23°C° 0 mm 1 mps 741 mmHg 97%
    07:00 +24°C° 0 mm 2 mps 741 mmHg 91%
    08:00 +26°C° 0 mm 3 mps 741 mmHg 85%
    09:00 +27°C° 0 mm 3 mps 742 mmHg 79%
    10:00 +28°C° 0.1 mm 3 mps 741 mmHg 75%
    11:00 +29°C° 0.1 mm 3 mps 741 mmHg 70%
    12:00 +30°C° 0.1 mm 3 mps 741 mmHg 66%
    13:00 +30°C° 0.7 mm 3 mps 740 mmHg 66%
    14:00 +30°C° 0.7 mm 3 mps 739 mmHg 67%
    15:00 +30°C° 0.7 mm 3 mps 738 mmHg 68%
    16:00 +29°C° 0.5 mm 3 mps 739 mmHg 73%
    17:00 +28°C° 0.5 mm 2 mps 739 mmHg 78%
    18:00 +27°C° 0.5 mm 2 mps 739 mmHg 83%
    19:00 +26°C° 0 mm 2 mps 740 mmHg 85%
    20:00 +25°C° 0 mm 2 mps 740 mmHg 86%
    21:00 +25°C° 0 mm 2 mps 741 mmHg 88%
    22:00 +24°C° 0 mm 2 mps 740 mmHg 88%
    23:00 +24°C° 0 mm 2 mps 740 mmHg 89%

    Day after tomorrow, 22 August, Thursday

    Time Temperature Precipitation Wind Pressure Humidity
    00:00 +24°C° 0 mm 2 mps 740 mmHg 90%
    01:00 +24°C° 0 mm 2 mps 740 mmHg 90%
    02:00 +24°C° 0 mm 2 mps 739 mmHg 91%
    03:00 +23°C° 0 mm 2 mps 739 mmHg 92%
    04:00 +23°C° 0 mm 2 mps 740 mmHg 92%
    05:00 +23°C° 0 mm 2 mps 740 mmHg 93%
    06:00 +23°C° 0 mm 2 mps 740 mmHg 93%
    07:00 +24°C° 0 mm 3 mps 741 mmHg 89%
    08:00 +26°C° 0 mm 3 mps 741 mmHg 84%
    09:00 +27°C° 0 mm 4 mps 742 mmHg 80%
    10:00 +28°C° 0.4 mm 4 mps 741 mmHg 76%
    11:00 +29°C° 0.4 mm 4 mps 741 mmHg 73%
    12:00 +30°C° 0.4 mm 4 mps 740 mmHg 69%
    13:00 +30°C° 0.9 mm 4 mps 740 mmHg 70%
    14:00 +30°C° 0.9 mm 4 mps 739 mmHg 71%
    15:00 +30°C° 0.9 mm 4 mps 738 mmHg 73%
    16:00 +28°C° 1.6 mm 3 mps 739 mmHg 78%
    17:00 +27°C° 1.6 mm 3 mps 739 mmHg 83%
    18:00 +26°C° 1.6 mm 2 mps 739 mmHg 88%
    19:00 +25°C° 0.3 mm 2 mps 740 mmHg 89%
    20:00 +25°C° 0.3 mm 3 mps 740 mmHg 90%
    21:00 +24°C° 0.3 mm 3 mps 741 mmHg 90%
    22:00 +24°C° 0 mm 3 mps 741 mmHg 91%
    23:00 +24°C° 0 mm 3 mps 741 mmHg 91%

    23 August, Friday

    Time Temperature Precipitation Wind Pressure Humidity
    00:00 +24°C° 0 mm 3 mps 740 mmHg 92%
    01:00 +22°C° 0 mm 3 mps 740 mmHg 92%
    02:00 +22°C° 0 mm 3 mps 740 mmHg 92%
    03:00 +22°C° 0 mm 3 mps 739 mmHg 93%
    04:00 +22°C° 0 mm 3 mps 740 mmHg 93%
    05:00 +22°C° 0 mm 3 mps 740 mmHg 94%
    06:00 +23°C° 0 mm 2 mps 741 mmHg 94%
    07:00 +24°C° 0 mm 3 mps 741 mmHg 90%
    08:00 +25°C° 0 mm 3 mps 742 mmHg 85%
    09:00 +26°C° 0 mm 4 mps 742 mmHg 80%
    10:00 +28°C° 0.3 mm 4 mps 741 mmHg 77%
    11:00 +29°C° 0.3 mm 4 mps 741 mmHg 73%
    12:00 +30°C° 0.3 mm 4 mps 741 mmHg 70%
    13:00 +30°C° 0.7 mm 4 mps 740 mmHg 70%
    14:00 +30°C° 0.7 mm 4 mps 739 mmHg 71%
    15:00 +30°C° 0.7 mm 4 mps 739 mmHg 71%
    16:00 +28°C° 1.7 mm 3 mps 739 mmHg 77%
    17:00 +27°C° 1.7 mm 3 mps 739 mmHg 82%
    18:00 +26°C° 1.7 mm 2 mps 739 mmHg 87%
    19:00 +25°C° 0.6 mm 3 mps 740 mmHg 89%
    20:00 +24°C° 0.6 mm 3 mps 740 mmHg 91%
    21:00 +23°C° 0.6 mm 4 mps 741 mmHg 93%
    22:00 +24°C° 0.1 mm 3 mps 741 mmHg 94%
    23:00 +22°C° 0.1 mm 3 mps 741 mmHg 94%

    24 August, Saturday

    Time Temperature Precipitation Wind Pressure Humidity
    00:00 +22°C° 0.1 mm 3 mps 741 mmHg 94%
    01:00 +22°C° 0.1 mm 3 mps 741 mmHg 94%
    02:00 +22°C° 0.1 mm 3 mps 741 mmHg 94%
    03:00 +23°C° 0.1 mm 2 mps 740 mmHg 94%
    04:00 +23°C° 0 mm 2 mps 741 mmHg 94%
    05:00 +23°C° 0 mm 2 mps 741 mmHg 94%
    06:00 +23°C° 0 mm 2 mps 741 mmHg 94%
    07:00 +24°C° 0 mm 3 mps 741 mmHg 90%
    08:00 +25°C° 0 mm 3 mps 742 mmHg 86%
    09:00 +26°C° 0 mm 4 mps 742 mmHg 82%
    10:00 +27°C° 0 mm 3 mps 742 mmHg 78%
    11:00 +28°C° 0 mm 3 mps 742 mmHg 74%
    12:00 +29°C° 0 mm 3 mps 741 mmHg 69%
    13:00 +30°C° 0.1 mm 3 mps 741 mmHg 68%
    14:00 +30°C° 0.1 mm 3 mps 740 mmHg 67%
    15:00 +30°C° 0.1 mm 3 mps 740 mmHg 67%
    16:00 +29°C° 0.3 mm 3 mps 740 mmHg 72%
    17:00 +27°C° 0.3 mm 3 mps 740 mmHg 77%
    18:00 +26°C° 0.3 mm 3 mps 740 mmHg 83%
    19:00 +25°C° 0 mm 3 mps 741 mmHg 84%
    20:00 +25°C° 0 mm 3 mps 741 mmHg 85%
    21:00 +24°C° 0 mm 3 mps 742 mmHg 87%
    22:00 +24°C° 0 mm 3 mps 742 mmHg 88%
    23:00 +24°C° 0 mm 3 mps 741 mmHg 88%

    25 August, Sunday

    Time Temperature Precipitation Wind Pressure Humidity
    00:00 +22°C° 0 mm 3 mps 741 mmHg 89%
    01:00 +22°C° 0 mm 3 mps 741 mmHg 89%
    02:00 +22°C° 0 mm 3 mps 741 mmHg 89%
    03:00 +22°C° 0 mm 3 mps 740 mmHg 90%
    04:00 +22°C° 0 mm 3 mps 741 mmHg 90%
    05:00 +22°C° 0 mm 3 mps 741 mmHg 90%
    06:00 +22°C° 0 mm 3 mps 741 mmHg 90%
    07:00 +24°C° 0 mm 3 mps 742 mmHg 85%
    08:00 +25°C° 0 mm 3 mps 742 mmHg 81%
    09:00 +26°C° 0 mm 4 mps 743 mmHg 76%
    10:00 +27°C° 0 mm 3 mps 742 mmHg 72%
    11:00 +28°C° 0 mm 3 mps 742 mmHg 69%
    12:00 +29°C° 0 mm 3 mps 742 mmHg 65%
    13:00 +29°C° 0 mm 3 mps 741 mmHg 64%
    14:00 +30°C° 0 mm 3 mps 740 mmHg 64%
    15:00 +30°C° 0 mm 3 mps 740 mmHg 64%
    16:00 +29°C° 0 mm 3 mps 740 mmHg 68%
    17:00 +27°C° 0 mm 3 mps 740 mmHg 73%
    18:00 +26°C° 0 mm 2 mps 740 mmHg 78%
    19:00 +26°C° 0 mm 3 mps 740 mmHg 80%
    20:00 +25°C° 0 mm 3 mps 741 mmHg 81%
    21:00 +24°C° 0 mm 3 mps 741 mmHg 83%
    22:00 +22°C° 0 mm 3 mps 741 mmHg 84%
    23:00 +23°C° 0 mm 2 mps 741 mmHg 86%
    Show more